Tracking 30743 objects as of 21-Jun-2025
HD Live streaming from Space Station
objects crossing your sky now

FENGYUN 1C DEB

Track FENGYUN 1C DEB now!
10-day predictions


NORAD ID: 37476
Int'l Code: 1999-025EJW
Perigee: 857.4 km
Apogee: 2,603.6 km
Inclination: 99.0 °
Period: 121.0 minutes
Semi major axis: 8101 km
RCS: 0.002 m2 (small)
Launch date: May 10, 1999
Source: People's Republic of China (PRC)
Launch site: Taiyaun Space Center, China (TSC)

Note: This is SATELLITE DEBRIS
Your satellite tracking list
Your tracking list is empty




NASA's NSSDC Master Catalog

Two Line Element Set (TLE):
1 37476U 99025EJW 25169.95833306  .00002156  00000-0  57258-2 0  9995
2 37476  98.9621 249.1706 1077734 208.8208 144.8982 11.90572838653396
Source of the keplerian elements: AFSPC